| time (UTC) | temp F | wind direction | speed knots | gust knots | rain 1hr in | rain 24hr in | rain mn in | humidity % | barometer mb |
| 20260505201010 | 80 | 278 | 0.9 | 9.6 | 0.00 | 0.00 | 0.00 | 46 | 1017.0 |
| 20260505200506 | 80 | 231 | 0.9 | 9.6 | 0.00 | 0.00 | 0.00 | 46 | 1017.0 |
| 20260505200005 | 80 | 254 | 1.7 | 10.4 | 0.00 | 0.00 | 0.00 | 46 | 1017.0 |
| 20260505195506 | 80 | 238 | 1.7 | 10.4 | 0.00 | 0.00 | 0.00 | 45 | 1017.2 |
| 20260505195004 | 80 | 198 | 0.9 | 7.8 | 0.00 | 0.00 | 0.00 | 44 | 1017.3 |
| 20260505194513 | 80 | 130 | 1.7 | 8.7 | 0.00 | 0.00 | 0.00 | 46 | 1017.4 |
| 20260505194005 | 81 | 191 | 0.9 | 8.7 | 0.00 | 0.00 | 0.00 | 46 | 1017.4 |
| 20260505193505 | 80 | 296 | 3.5 | 7.8 | 0.00 | 0.00 | 0.00 | 45 | 1017.6 |
| 20260505193016 | 79 | 130 | 1.7 | 7.8 | 0.00 | 0.00 | 0.00 | 47 | 1017.7 |
| 20260505192508 | 80 | 98 | 4.3 | 8.7 | 0.00 | 0.00 | 0.00 | 46 | 1017.9 |
| 20260505192008 | 79 | 9 | 0.9 | 8.7 | 0.00 | 0.00 | 0.00 | 48 | 1017.9 |
| 20260505191520 | 80 | 134 | 2.6 | 7.8 | 0.00 | 0.00 | 0.00 | 49 | 1017.9 |
| 20260505191011 | 79 | 219 | 0.9 | 7.0 | 0.00 | 0.00 | 0.00 | 48 | 1018.1 |
| 20260505190509 | 79 | 131 | 1.7 | 7.8 | 0.00 | 0.00 | 0.00 | 47 | 1018.1 |
| 20260505190024 | 79 | 91 | 1.7 | 7.8 | 0.00 | 0.00 | 0.00 | 49 | 1018.2 |
| 20260505185510 | 80 | 158 | 2.6 | 8.7 | 0.00 | 0.00 | 0.00 | 48 | 1018.2 |
| 20260505185003 | 80 | 147 | 2.6 | 8.7 | 0.00 | 0.00 | 0.00 | 46 | 1018.0 |
| 20260505184508 | 81 | 117 | 1.7 | 6.1 | 0.00 | 0.00 | 0.00 | 46 | 1018.1 |
| 20260505184003 | 80 | 96 | 1.7 | 5.2 | 0.00 | 0.00 | 0.00 | 48 | 1018.0 |
| 20260505183504 | 80 | 89 | 1.7 | 6.1 | 0.00 | 0.00 | 0.00 | 48 | 1018.0 |
| 20260505183017 | 80 | 350 | 1.7 | 6.1 | 0.00 | 0.00 | 0.00 | 46 | 1017.9 |
| 20260505182507 | 81 | 83 | 3.5 | 7.8 | 0.00 | 0.00 | 0.00 | 44 | 1017.9 |
| 20260505182007 | 81 | 169 | 2.6 | 7.8 | 0.00 | 0.00 | 0.00 | 46 | 1017.9 |
| 20260505181516 | 81 | 288 | 1.7 | 10.4 | 0.00 | 0.00 | 0.00 | 46 | 1017.9 |
| 20260505181007 | 80 | 132 | 2.6 | 10.4 | 0.00 | 0.00 | 0.00 | 49 | 1017.9 |
| 20260505180509 | 80 | 293 | 2.6 | 8.7 | 0.00 | 0.00 | 0.00 | 48 | 1018.0 |
| 20260505180046 | 80 | 125 | 0.9 | 8.7 | 0.00 | 0.00 | 0.00 | 48 | 1017.8 |
| 20260505175509 | 80 | 271 | 1.7 | 8.7 | 0.00 | 0.00 | 0.00 | 48 | 1017.8 |
| 20260505175015 | 80 | 65 | 1.7 | 7.0 | 0.00 | 0.00 | 0.00 | 46 | 1017.9 |
| 20260505174546 | 80 | 157 | 3.5 | 7.0 | 0.00 | 0.00 | 0.00 | 48 | 1017.8 |
| 20260505174004 | 80 | 171 | 0.9 | 7.0 | 0.00 | 0.00 | 0.00 | 48 | 1017.7 |
| 20260505173503 | 80 | 61 | 0.9 | 7.0 | 0.00 | 0.00 | 0.00 | 48 | 1017.7 |
| 20260505173017 | 80 | 101 | 0.9 | 5.2 | 0.00 | 0.00 | 0.00 | 48 | 1017.6 |
| 20260505172504 | 80 | 203 | 1.7 | 4.3 | 0.00 | 0.00 | 0.00 | 44 | 1017.9 |
| 20260505172003 | 80 | 333 | 0.9 | 5.2 | 0.00 | 0.00 | 0.00 | 47 | 1018.0 |
| 20260505171523 | 80 | 144 | 1.7 | 7.0 | 0.00 | 0.00 | 0.00 | 46 | 1018.1 |
| 20260505171007 | 80 | 30 | 1.7 | 7.0 | 0.00 | 0.00 | 0.00 | 47 | 1018.1 |
| 20260505170508 | 80 | 104 | 0.9 | 6.1 | 0.00 | 0.00 | 0.00 | 48 | 1018.0 |
| 20260505170022 | 80 | 223 | 1.7 | 6.1 | 0.00 | 0.00 | 0.00 | 45 | 1018.1 |
| 20260505165509 | 80 | 121 | 1.7 | 6.1 | 0.00 | 0.00 | 0.00 | 45 | 1018.1 |
| 20260505165009 | 80 | 304 | 1.7 | 7.0 | 0.00 | 0.00 | 0.00 | 48 | 1018.3 |
| 20260505164526 | 80 | 235 | 1.7 | 7.0 | 0.00 | 0.00 | 0.00 | 46 | 1018.4 |
| 20260505164009 | 80 | 144 | 2.6 | 7.8 | 0.00 | 0.00 | 0.00 | 46 | 1018.4 |
| 20260505163510 | 80 | 225 | 1.7 | 7.8 | 0.00 | 0.00 | 0.00 | 45 | 1018.5 |
| 20260505163013 | 80 | 191 | 0.9 | 6.1 | 0.00 | 0.00 | 0.00 | 48 | 1018.5 |
| 20260505162502 | 79 | 67 | 1.7 | 5.2 | 0.00 | 0.00 | 0.00 | 47 | 1018.6 |
| 20260505162006 | 79 | 120 | 0.9 | 7.8 | 0.00 | 0.00 | 0.00 | 48 | 1018.6 |
| 20260505161514 | 79 | 103 | 3.5 | 7.8 | 0.00 | 0.00 | 0.00 | 45 | 1018.8 |
| 20260505161007 | 79 | 94 | 3.5 | 7.0 | 0.00 | 0.00 | 0.00 | 45 | 1018.9 |
| 20260505160507 | 78 | 103 | 0.9 | 7.0 | 0.00 | 0.00 | 0.00 | 49 | 1019.0 |
| 20260505153029 | 77 | 136 | 0.9 | 5.2 | 0.00 | 0.00 | 0.00 | 53 | 1018.9 |
| 20260505152509 | 77 | 301 | 1.7 | 5.2 | 0.00 | 0.00 | 0.00 | 53 | 1018.9 |
| 20260505152007 | 77 | 101 | 1.7 | 3.5 | 0.00 | 0.00 | 0.00 | 52 | 1018.8 |
| 20260505151514 | 77 | 319 | 1.7 | 3.5 | 0.00 | 0.00 | 0.00 | 53 | 1018.8 |
| 20260505151009 | 78 | 192 | 0.9 | 5.2 | 0.00 | 0.00 | 0.00 | 54 | 1019.0 |
| 20260505150510 | 77 | 168 | 1.7 | 5.2 | 0.00 | 0.00 | 0.00 | 54 | 1019.0 |
| 20260505140507 | 75 | 283 | 1.7 | 7.0 | 0.00 | 0.00 | 0.00 | 58 | 1018.9 |
| 20260505125007 | 64 | 259 | 0.0 | 1.7 | 0.00 | 0.00 | 0.00 | 87 | 1018.7 |
| 20260505124519 | 63 | 252 | 0.0 | 0.9 | 0.00 | 0.00 | 0.00 | 89 | 1018.7 |
| 20260505124007 | 61 | 239 | 0.0 | 0.9 | 0.00 | 0.00 | 0.00 | 95 | 1018.7 |
| 20260505123507 | 60 | 240 | 0.0 | 0.0 | 0.00 | 0.00 | 0.00 | 95 | 1018.7 |
| 20260505123023 | 59 | 240 | 0.0 | 0.0 | 0.00 | 0.00 | 0.00 | 95 | 1018.6 |
| 20260505122506 | 57 | 240 | 0.0 | 0.0 | 0.00 | 0.00 | 0.00 | 95 | 1018.6 |
| 20260505122010 | 57 | 240 | 0.0 | 0.0 | 0.00 | 0.00 | 0.00 | 94 | 1018.6 |
| 20260505121526 | 56 | 243 | 0.0 | 0.0 | 0.00 | 0.00 | 0.00 | 94 | 1018.6 |
| 20260505121009 | 56 | 240 | 0.0 | 0.0 | 0.00 | 0.00 | 0.00 | 94 | 1018.5 |
| 20260505120508 | 55 | 242 | 0.0 | 0.0 | 0.00 | 0.00 | 0.00 | 94 | 1018.6 |
| 20260505120031 | 55 | 245 | 0.0 | 0.0 | 0.00 | 0.00 | 0.00 | 94 | 1018.5 |
| 20260505115508 | 54 | 240 | 0.0 | 0.0 | 0.00 | 0.00 | 0.00 | 94 | 1018.5 |
| 20260505115004 | 54 | 239 | 0.0 | 0.0 | 0.00 | 0.00 | 0.00 | 94 | 1018.4 |
| 20260505114517 | 53 | 239 | 0.0 | 0.0 | 0.00 | 0.00 | 0.00 | 94 | 1018.4 |
| 20260505114009 | 53 | 239 | 0.0 | 0.0 | 0.00 | 0.00 | 0.00 | 93 | 1018.4 |
| 20260505113507 | 52 | 239 | 0.0 | 0.0 | 0.00 | 0.00 | 0.00 | 93 | 1018.3 |
| 20260505113025 | 52 | 239 | 0.0 | 0.0 | 0.00 | 0.00 | 0.00 | 93 | 1018.3 |
| 20260505112509 | 52 | 238 | 0.0 | 0.0 | 0.00 | 0.00 | 0.00 | 93 | 1018.3 |
| 20260505112007 | 52 | 238 | 0.0 | 0.0 | 0.00 | 0.00 | 0.00 | 93 | 1018.2 |
| 20260505111526 | 52 | 238 | 0.0 | 0.0 | 0.00 | 0.00 | 0.00 | 93 | 1018.1 |
| 20260505111010 | 52 | 238 | 0.0 | 0.0 | 0.00 | 0.00 | 0.00 | 92 | 1018.1 |
| 20260505110510 | 51 | 238 | 0.0 | 0.0 | 0.00 | 0.00 | 0.00 | 92 | 1018.0 |
| 20260505102009 | 52 | 238 | 0.0 | 0.0 | 0.00 | 0.00 | 0.00 | 92 | 1017.5 |
| 20260505101532 | 52 | 238 | 0.0 | 0.0 | 0.00 | 0.00 | 0.00 | 92 | 1017.4 |
| 20260505101008 | 52 | 238 | 0.0 | 0.0 | 0.00 | 0.00 | 0.00 | 92 | 1017.5 |
| 20260505100508 | 52 | 238 | 0.0 | 0.0 | 0.00 | 0.00 | 0.00 | 91 | 1017.4 |
| 20260505100025 | 52 | 238 | 0.0 | 0.0 | 0.00 | 0.00 | 0.00 | 91 | 1017.4 |
| 20260505095508 | 52 | 238 | 0.0 | 0.0 | 0.00 | 0.00 | 0.00 | 92 | 1017.4 |
| 20260505095008 | 52 | 238 | 0.0 | 0.0 | 0.00 | 0.00 | 0.00 | 91 | 1017.4 |
| 20260505094529 | 52 | 238 | 0.0 | 0.0 | 0.00 | 0.00 | 0.00 | 91 | 1017.4 |
| 20260505094009 | 52 | 238 | 0.0 | 0.0 | 0.00 | 0.00 | 0.00 | 91 | 1017.4 |
| 20260505093509 | 52 | 238 | 0.0 | 0.0 | 0.00 | 0.00 | 0.00 | 91 | 1017.4 |
| 20260505093035 | 52 | 238 | 0.0 | 0.0 | 0.00 | 0.00 | 0.00 | 91 | 1017.4 |
| 20260505092509 | 52 | 238 | 0.0 | 0.0 | 0.00 | 0.00 | 0.00 | 91 | 1017.3 |
| 20260505092007 | 52 | 238 | 0.0 | 0.0 | 0.00 | 0.00 | 0.00 | 91 | 1017.3 |
| 20260505091525 | 52 | 238 | 0.0 | 0.0 | 0.00 | 0.00 | 0.00 | 91 | 1017.4 |
| 20260505091007 | 52 | 238 | 0.0 | 0.0 | 0.00 | 0.00 | 0.00 | 91 | 1017.3 |
| 20260505090509 | 53 | 238 | 0.0 | 0.0 | 0.00 | 0.00 | 0.00 | 91 | 1017.3 |
| 20260505090028 | 53 | 238 | 0.0 | 0.0 | 0.00 | 0.00 | 0.00 | 91 | 1017.3 |
| 20260505085511 | 53 | 238 | 0.0 | 0.0 | 0.00 | 0.00 | 0.00 | 91 | 1017.2 |
| 20260505085009 | 53 | 238 | 0.0 | 0.0 | 0.00 | 0.00 | 0.00 | 91 | 1017.1 |
| 20260505084531 | 53 | 238 | 0.0 | 0.0 | 0.00 | 0.00 | 0.00 | 91 | 1017.0 |
| 20260505084004 | 53 | 238 | 0.0 | 0.0 | 0.00 | 0.00 | 0.00 | 90 | 1017.0 |
| 20260505083506 | 53 | 238 | 0.0 | 0.0 | 0.00 | 0.00 | 0.00 | 90 | 1016.9 |
| 20260505083023 | 53 | 238 | 0.0 | 0.0 | 0.00 | 0.00 | 0.00 | 90 | 1016.8 |
| 20260505082505 | 53 | 238 | 0.0 | 0.0 | 0.00 | 0.00 | 0.00 | 90 | 1016.8 |
| 20260505082008 | 53 | 238 | 0.0 | 0.0 | 0.00 | 0.00 | 0.00 | 90 | 1016.7 |
| 20260505081520 | 53 | 238 | 0.0 | 0.0 | 0.00 | 0.00 | 0.00 | 90 | 1016.7 |
| 20260505081008 | 53 | 238 | 0.0 | 0.0 | 0.00 | 0.00 | 0.00 | 90 | 1016.6 |
| 20260505080507 | 53 | 238 | 0.0 | 0.0 | 0.00 | 0.00 | 0.00 | 90 | 1016.6 |
| 20260505080025 | 53 | 238 | 0.0 | 0.0 | 0.00 | 0.00 | 0.00 | 90 | 1016.6 |
| 20260505075509 | 53 | 238 | 0.0 | 0.0 | 0.00 | 0.00 | 0.00 | 90 | 1016.7 |
| 20260505075007 | 53 | 238 | 0.0 | 0.0 | 0.00 | 0.00 | 0.00 | 90 | 1016.7 |
| 20260505074528 | 53 | 238 | 0.0 | 0.0 | 0.00 | 0.00 | 0.00 | 89 | 1016.7 |
| 20260505074010 | 53 | 238 | 0.0 | 0.0 | 0.00 | 0.00 | 0.00 | 89 | 1016.6 |
| 20260505073510 | 53 | 238 | 0.0 | 0.0 | 0.00 | 0.00 | 0.00 | 89 | 1016.7 |
| 20260505073011 | 54 | 238 | 0.0 | 0.0 | 0.00 | 0.00 | 0.00 | 89 | 1016.7 |
| 20260505072507 | 54 | 238 | 0.0 | 0.0 | 0.00 | 0.00 | 0.00 | 89 | 1016.7 |
| 20260505072005 | 54 | 238 | 0.0 | 0.0 | 0.00 | 0.00 | 0.00 | 89 | 1016.6 |
| 20260505071514 | 54 | 238 | 0.0 | 0.0 | 0.00 | 0.00 | 0.00 | 89 | 1016.7 |
| 20260505071007 | 54 | 238 | 0.0 | 0.0 | 0.00 | 0.00 | 0.00 | 89 | 1016.6 |
| 20260505070511 | 54 | 238 | 0.0 | 0.0 | 0.00 | 0.00 | 0.00 | 88 | 1016.7 |
| 20260505070022 | 54 | 238 | 0.0 | 0.0 | 0.00 | 0.00 | 0.00 | 88 | 1016.7 |
| 20260505065509 | 54 | 238 | 0.0 | 0.0 | 0.00 | 0.00 | 0.00 | 88 | 1016.8 |
| 20260505065009 | 54 | 238 | 0.0 | 0.0 | 0.00 | 0.00 | 0.00 | 88 | 1016.7 |
| 20260505064524 | 54 | 238 | 0.0 | 0.0 | 0.00 | 0.00 | 0.00 | 88 | 1016.7 |
| 20260505064007 | 54 | 238 | 0.0 | 0.0 | 0.00 | 0.00 | 0.00 | 88 | 1016.8 |
| 20260505063508 | 54 | 238 | 0.0 | 0.0 | 0.00 | 0.00 | 0.00 | 88 | 1016.9 |
| 20260505063028 | 54 | 238 | 0.0 | 0.0 | 0.00 | 0.00 | 0.00 | 88 | 1017.0 |
| 20260505062517 | 54 | 238 | 0.0 | 0.0 | 0.00 | 0.00 | 0.00 | 87 | 1017.0 |
| 20260505062008 | 54 | 238 | 0.0 | 0.0 | 0.00 | 0.00 | 0.00 | 87 | 1017.1 |
| 20260505061515 | 54 | 238 | 0.0 | 0.0 | 0.00 | 0.00 | 0.00 | 87 | 1017.2 |
| 20260505061008 | 55 | 238 | 0.0 | 0.0 | 0.00 | 0.00 | 0.00 | 86 | 1017.3 |
| 20260505060508 | 55 | 238 | 0.0 | 0.0 | 0.00 | 0.00 | 0.00 | 86 | 1017.4 |
| 20260505060020 | 55 | 238 | 0.0 | 0.0 | 0.00 | 0.00 | 0.00 | 86 | 1017.5 |
| 20260505055509 | 55 | 238 | 0.0 | 0.0 | 0.00 | 0.00 | 0.00 | 85 | 1017.4 |
| 20260505055010 | 55 | 238 | 0.0 | 0.0 | 0.00 | 0.00 | 0.00 | 85 | 1017.5 |
| 20260505054526 | 55 | 238 | 0.0 | 0.0 | 0.00 | 0.00 | 0.00 | 85 | 1017.6 |
| 20260505054013 | 55 | 238 | 0.0 | 0.0 | 0.00 | 0.00 | 0.00 | 85 | 1017.6 |
| 20260505053508 | 55 | 238 | 0.0 | 0.0 | 0.00 | 0.00 | 0.00 | 84 | 1017.6 |
| 20260505053028 | 55 | 238 | 0.0 | 0.0 | 0.00 | 0.00 | 0.00 | 84 | 1017.7 |
| 20260505052508 | 56 | 238 | 0.0 | 0.0 | 0.00 | 0.00 | 0.00 | 84 | 1017.9 |
| 20260505052012 | 56 | 238 | 0.0 | 0.0 | 0.00 | 0.00 | 0.00 | 83 | 1017.9 |
| 20260505051552 | 56 | 238 | 0.0 | 0.0 | 0.00 | 0.00 | 0.00 | 83 | 1017.9 |
| 20260505051011 | 56 | 238 | 0.0 | 0.0 | 0.00 | 0.00 | 0.00 | 82 | 1017.9 |
| 20260505050509 | 56 | 238 | 0.0 | 0.0 | 0.00 | 0.00 | 0.00 | 82 | 1017.9 |
| 20260505041532 | 58 | 238 | 0.0 | 0.0 | 0.00 | 0.00 | 0.00 | 78 | 1018.0 |
| 20260505041008 | 58 | 238 | 0.0 | 0.0 | 0.00 | 0.00 | 0.00 | 77 | 1018.0 |
| 20260505040509 | 58 | 238 | 0.0 | 0.0 | 0.00 | 0.00 | 0.00 | 76 | 1018.0 |
| 20260505040018 | 59 | 238 | 0.0 | 0.0 | 0.00 | 0.00 | 0.00 | 76 | 1018.1 |
| 20260505035508 | 59 | 238 | 0.0 | 0.0 | 0.00 | 0.00 | 0.00 | 75 | 1018.1 |
| 20260505035008 | 59 | 238 | 0.0 | 0.0 | 0.00 | 0.00 | 0.00 | 75 | 1018.0 |
| 20260505034522 | 59 | 238 | 0.0 | 0.0 | 0.00 | 0.00 | 0.00 | 74 | 1018.0 |
| 20260505034007 | 59 | 238 | 0.0 | 0.0 | 0.00 | 0.00 | 0.00 | 74 | 1018.0 |
| 20260505033511 | 60 | 238 | 0.0 | 0.0 | 0.00 | 0.00 | 0.00 | 73 | 1017.9 |
| 20260505033029 | 60 | 238 | 0.0 | 0.0 | 0.00 | 0.00 | 0.00 | 73 | 1018.0 |
| 20260505032507 | 60 | 238 | 0.0 | 0.0 | 0.00 | 0.00 | 0.00 | 72 | 1018.0 |
| 20260505032011 | 60 | 238 | 0.0 | 0.0 | 0.00 | 0.00 | 0.00 | 71 | 1018.0 |
| 20260505031527 | 60 | 238 | 0.0 | 0.0 | 0.00 | 0.00 | 0.00 | 71 | 1018.1 |
| 20260505031007 | 60 | 238 | 0.0 | 0.0 | 0.00 | 0.00 | 0.00 | 70 | 1018.1 |
| 20260505030508 | 61 | 238 | 0.0 | 0.0 | 0.00 | 0.00 | 0.00 | 70 | 1018.1 |
| 20260505030031 | 61 | 238 | 0.0 | 0.0 | 0.00 | 0.00 | 0.00 | 69 | 1018.0 |
| 20260505025514 | 61 | 238 | 0.0 | 0.0 | 0.00 | 0.00 | 0.00 | 69 | 1018.0 |
| 20260505025011 | 61 | 238 | 0.0 | 0.0 | 0.00 | 0.00 | 0.00 | 68 | 1018.0 |
| 20260505024517 | 61 | 238 | 0.0 | 0.0 | 0.00 | 0.00 | 0.00 | 68 | 1018.0 |
| 20260505024007 | 61 | 238 | 0.0 | 0.0 | 0.00 | 0.00 | 0.00 | 68 | 1017.9 |
| 20260505023507 | 62 | 238 | 0.0 | 1.7 | 0.00 | 0.00 | 0.00 | 66 | 1017.9 |
| 20260505023023 | 62 | 230 | 0.0 | 1.7 | 0.00 | 0.00 | 0.00 | 66 | 1017.9 |
| 20260505022510 | 62 | 230 | 0.0 | 0.0 | 0.00 | 0.00 | 0.00 | 66 | 1017.8 |
| 20260505022010 | 62 | 230 | 0.0 | 0.0 | 0.00 | 0.00 | 0.00 | 64 | 1017.8 |
| 20260505021527 | 63 | 230 | 0.0 | 0.0 | 0.00 | 0.00 | 0.00 | 64 | 1017.9 |
| 20260505021010 | 63 | 230 | 0.0 | 0.0 | 0.00 | 0.00 | 0.00 | 64 | 1018.0 |
| 20260505020508 | 63 | 230 | 0.0 | 0.0 | 0.00 | 0.00 | 0.00 | 63 | 1017.8 |
| 20260505020028 | 63 | 230 | 0.0 | 0.0 | 0.00 | 0.00 | 0.00 | 62 | 1017.8 |
| 20260505015512 | 63 | 230 | 0.0 | 0.0 | 0.00 | 0.00 | 0.00 | 61 | 1017.9 |
| 20260505015012 | 64 | 230 | 0.0 | 1.7 | 0.00 | 0.00 | 0.00 | 61 | 1017.8 |
| 20260505014528 | 64 | 226 | 0.0 | 1.7 | 0.00 | 0.00 | 0.00 | 60 | 1017.7 |
| 20260505014017 | 64 | 360 | 0.0 | 0.0 | 0.00 | 0.00 | 0.00 | 60 | 1017.8 |
| 20260505013507 | 64 | 360 | 0.0 | 1.7 | 0.00 | 0.00 | 0.00 | 59 | 1017.8 |
| 20260505013020 | 64 | 150 | 0.0 | 1.7 | 0.00 | 0.00 | 0.00 | 60 | 1017.5 |
| 20260505012507 | 64 | 248 | 0.0 | 0.0 | 0.00 | 0.00 | 0.00 | 58 | 1017.6 |
| 20260505012009 | 64 | 360 | 0.0 | 0.0 | 0.00 | 0.00 | 0.00 | 58 | 1017.6 |
| 20260505011526 | 65 | 360 | 0.0 | 0.0 | 0.00 | 0.00 | 0.00 | 58 | 1017.5 |
| 20260505011010 | 65 | 360 | 0.0 | 1.7 | 0.00 | 0.00 | 0.00 | 56 | 1017.4 |
| 20260505010512 | 65 | 256 | 0.0 | 1.7 | 0.00 | 0.00 | 0.00 | 56 | 1017.4 |
| 20260505010027 | 65 | 240 | 0.0 | 1.7 | 0.00 | 0.00 | 0.00 | 55 | 1017.4 |
| 20260505005513 | 66 | 239 | 0.0 | 1.7 | 0.00 | 0.00 | 0.00 | 55 | 1017.5 |
| 20260505005012 | 66 | 138 | 0.0 | 1.7 | 0.00 | 0.00 | 0.00 | 54 | 1017.4 |
| 20260505004530 | 66 | 122 | 0.0 | 1.7 | 0.00 | 0.00 | 0.00 | 53 | 1017.4 |
| 20260505004008 | 66 | 136 | 0.0 | 1.7 | 0.00 | 0.00 | 0.00 | 52 | 1017.3 |
| 20260505003508 | 67 | 15 | 0.0 | 1.7 | 0.00 | 0.00 | 0.00 | 52 | 1017.3 |
| 20260505003027 | 67 | 22 | 0.0 | 1.7 | 0.00 | 0.00 | 0.00 | 52 | 1017.2 |
| 20260505002508 | 67 | 317 | 0.0 | 1.7 | 0.00 | 0.00 | 0.00 | 51 | 1017.2 |
| 20260505002010 | 67 | 246 | 0.0 | 1.7 | 0.00 | 0.00 | 0.00 | 51 | 1017.2 |
| 20260505001524 | 68 | 329 | 0.0 | 1.7 | 0.00 | 0.00 | 0.00 | 51 | 1017.2 |
| 20260505001008 | 68 | 98 | 0.0 | 1.7 | 0.00 | 0.00 | 0.00 | 50 | 1017.3 |
| 20260505000507 | 68 | 78 | 0.0 | 1.7 | 0.00 | 0.00 | 0.00 | 49 | 1017.2 |
| 20260505000025 | 68 | 248 | 0.0 | 1.7 | 0.00 | 0.00 | 0.00 | 48 | 1017.3 |
| 20260504235508 | 69 | 360 | 0.0 | 1.7 | 0.00 | 0.00 | 0.00 | 48 | 1017.2 |
| 20260504235008 | 69 | 360 | 0.9 | 1.7 | 0.00 | 0.00 | 0.00 | 47 | 1017.2 |
| 20260504234532 | 69 | 318 | 0.0 | 1.7 | 0.00 | 0.00 | 0.00 | 47 | 1017.1 |
| 20260504234010 | 69 | 186 | 0.0 | 2.6 | 0.00 | 0.00 | 0.00 | 46 | 1017.0 |
| 20260504233506 | 70 | 58 | 0.0 | 2.6 | 0.00 | 0.00 | 0.00 | 44 | 1017.2 |
| 20260504233016 | 70 | 308 | 0.9 | 1.7 | 0.00 | 0.00 | 0.00 | 45 | 1017.2 |
| 20260504232507 | 70 | 106 | 0.0 | 1.7 | 0.00 | 0.00 | 0.00 | 46 | 1017.1 |
| 20260504232008 | 71 | 128 | 0.9 | 5.2 | 0.00 | 0.00 | 0.00 | 46 | 1017.1 |
| 20260504231524 | 71 | 124 | 0.0 | 5.2 | 0.00 | 0.00 | 0.00 | 46 | 1017.1 |
| 20260504231008 | 71 | 78 | 0.9 | 1.7 | 0.00 | 0.00 | 0.00 | 46 | 1017.0 |
| 20260504230507 | 71 | 282 | 0.0 | 2.6 | 0.00 | 0.00 | 0.00 | 45 | 1017.0 |
| 20260504230006 | 72 | 114 | 0.0 | 6.1 | 0.00 | 0.00 | 0.00 | 45 | 1017.1 |
| 20260504225506 | 72 | 130 | 1.7 | 7.8 | 0.00 | 0.00 | 0.00 | 44 | 1017.0 |
| 20260504225004 | 72 | 220 | 1.7 | 7.8 | 0.00 | 0.00 | 0.00 | 45 | 1017.0 |
| 20260504224509 | 72 | 338 | 0.9 | 4.3 | 0.00 | 0.00 | 0.00 | 46 | 1017.0 |
| 20260504224006 | 73 | 302 | 0.9 | 4.3 | 0.00 | 0.00 | 0.00 | 47 | 1017.1 |
| 20260504223505 | 73 | 96 | 0.0 | 5.2 | 0.00 | 0.00 | 0.00 | 48 | 1017.1 |
| 20260504223018 | 73 | 117 | 0.0 | 5.2 | 0.00 | 0.00 | 0.00 | 46 | 1017.1 |
| 20260504222508 | 73 | 51 | 0.9 | 5.2 | 0.00 | 0.00 | 0.00 | 46 | 1017.1 |
| 20260504222008 | 73 | 161 | 0.0 | 7.0 | 0.00 | 0.00 | 0.00 | 45 | 1017.1 |
| 20260504221520 | 74 | 102 | 0.9 | 7.0 | 0.00 | 0.00 | 0.00 | 45 | 1017.1 |
| 20260504221008 | 74 | 138 | 2.6 | 5.2 | 0.00 | 0.00 | 0.00 | 44 | 1017.1 |
| 20260504220509 | 74 | 126 | 1.7 | 5.2 | 0.00 | 0.00 | 0.00 | 44 | 1017.0 |
| 20260504220022 | 74 | 215 | 0.9 | 11.3 | 0.00 | 0.00 | 0.00 | 45 | 1017.0 |
| 20260504215508 | 75 | 80 | 1.7 | 11.3 | 0.00 | 0.00 | 0.00 | 44 | 1017.0 |
| 20260504215007 | 75 | 247 | 1.7 | 10.4 | 0.00 | 0.00 | 0.00 | 44 | 1016.9 |
| 20260504214509 | 75 | 96 | 1.7 | 7.8 | 0.00 | 0.00 | 0.00 | 44 | 1016.9 |
| 20260504214005 | 75 | 119 | 1.7 | 7.0 | 0.00 | 0.00 | 0.00 | 43 | 1016.8 |
| 20260504213505 | 75 | 273 | 1.7 | 7.0 | 0.00 | 0.00 | 0.00 | 43 | 1016.9 |
| 20260504213018 | 75 | 93 | 1.7 | 6.1 | 0.00 | 0.00 | 0.00 | 44 | 1016.8 |
| 20260504212505 | 76 | 19 | 2.6 | 6.1 | 0.00 | 0.00 | 0.00 | 42 | 1016.8 |
| 20260504212006 | 76 | 148 | 1.7 | 6.1 | 0.00 | 0.00 | 0.00 | 42 | 1016.9 |
| 20260504211519 | 76 | 259 | 1.7 | 7.8 | 0.00 | 0.00 | 0.00 | 42 | 1016.8 |
| 20260504211007 | 76 | 86 | 1.7 | 7.8 | 0.00 | 0.00 | 0.00 | 42 | 1016.9 |
| 20260504210507 | 76 | 256 | 0.9 | 7.0 | 0.00 | 0.00 | 0.00 | 42 | 1016.8 |
| 20260504210031 | 76 | 252 | 1.7 | 7.8 | 0.00 | 0.00 | 0.00 | 43 | 1016.7 |
| 20260504205512 | 76 | 92 | 2.6 | 7.8 | 0.00 | 0.00 | 0.00 | 43 | 1016.8 |
| 20260504205007 | 76 | 156 | 1.7 | 10.4 | 0.00 | 0.00 | 0.00 | 42 | 1016.8 |
| 20260504204524 | 76 | 90 | 4.3 | 10.4 | 0.00 | 0.00 | 0.00 | 44 | 1016.7 |
| 20260504204004 | 77 | 126 | 1.7 | 7.8 | 0.00 | 0.00 | 0.00 | 42 | 1016.8 |
| 20260504203506 | 77 | 121 | 1.7 | 13.9 | 0.00 | 0.00 | 0.00 | 42 | 1016.9 |
| 20260504203020 | 78 | 137 | 2.6 | 13.9 | 0.00 | 0.00 | 0.00 | 43 | 1016.9 |
| 20260504202504 | 78 | 85 | 1.7 | 7.8 | 0.00 | 0.00 | 0.00 | 44 | 1016.9 |
| 20260504202007 | 79 | 115 | 1.7 | 7.8 | 0.00 | 0.00 | 0.00 | 41 | 1016.9 |
| 20260504201516 | 79 | 182 | 1.7 | 10.4 | 0.00 | 0.00 | 0.00 | 42 | 1017.0 |